GW6950 Weather Reports


time (UTC)temp
C
wind
direction
speed
KPH
gust
KPH
rain 1hr
cm
rain 24hr
cm
rain mn
cm
humidity
%
barometer
mb
20260505070455 13 233 3.2 16.1 0.00 0.00 0.00 84 1012.5
20260505065930 13 257 4.8 17.7 0.00 0.00 0.00 84 1012.3
20260505064447 13 230 6.4 12.9 0.00 0.00 0.00 83 1012.2
20260505063441 13 255 8.0 20.9 0.00 0.00 0.00 83 1012.2
20260505062439 13 286 11.3 22.5 0.00 0.00 0.00 83 1012.0
20260505061437 13 239 9.7 29.0 0.00 0.00 0.00 83 1012.1
20260505060436 13 298 12.9 27.4 0.00 0.00 0.00 83 1012.2
20260505055918 13 254 4.8 16.1 0.00 0.00 0.00 83 1011.8
20260505054434 13 243 6.4 17.7 0.00 0.00 0.00 83 1012.0
20260505053434 13 299 11.3 24.1 0.00 0.00 0.00 83 1011.7
20260505052913 13 214 9.7 25.7 0.00 0.00 0.00 83 1011.7
20260505051432 13 282 9.7 27.4 0.00 0.00 0.00 82 1011.7
20260505050432 13 244 8.0 24.1 0.00 0.00 0.00 83 1011.8
20260505040420 14 249 9.7 17.7 0.00 0.00 0.00 81 1011.4
20260505035909 14 259 4.8 17.7 0.00 0.00 0.00 79 1011.2
20260505034417 14 280 11.3 22.5 0.00 0.00 0.00 80 1011.2
20260505033416 15 281 6.4 17.7 0.00 0.00 0.00 78 1011.1
20260505032842 15 246 4.8 22.5 0.00 0.00 0.00 78 1011.1
20260505031402 15 242 6.4 17.7 0.00 0.00 0.00 77 1010.8
20260505030401 15 245 16.1 24.1 0.00 0.00 0.00 77 1010.9
20260505025403 16 254 9.7 24.1 0.00 0.00 0.00 73 1010.8
20260505024401 16 227 8.0 24.1 0.00 0.00 0.00 73 1010.6
20260505023402 17 209 9.7 22.5 0.00 0.00 0.00 70 1010.7
20260505022401 17 239 9.7 22.5 0.00 0.00 0.00 69 1010.5
20260505021402 17 245 12.9 22.5 0.00 0.00 0.00 68 1010.6
20260505020837 18 236 9.7 24.1 0.00 0.00 0.00 67 1010.4
20260505015402 18 271 9.7 24.1 0.00 0.00 0.00 64 1010.5
20260505014401 18 244 9.7 20.9 0.00 0.00 0.00 65 1010.1
20260505013848 18 250 8.0 14.5 0.00 0.00 0.00 66 1010.0
20260505012847 19 280 11.3 16.1 0.00 0.00 0.00 65 1010.1
20260505010837 20 253 8.0 20.9 0.00 0.00 0.00 60 1010.2
20260505005400 20 221 11.3 20.9 0.00 0.00 0.00 61 1010.1
20260505004836 20 263 8.0 14.5 0.00 0.00 0.00 61 1010.1
20260505003401 21 269 8.0 20.9 0.00 0.00 0.00 59 1010.0
20260505002401 21 270 3.2 17.7 0.00 0.00 0.00 56 1009.8
20260505001401 22 231 6.4 16.1 0.00 0.00 0.00 57 1009.9
20260505000403 22 301 8.0 17.7 0.00 0.00 0.00 56 1009.9
20260504235400 22 253 8.0 20.9 0.00 0.00 0.00 54 1009.7
20260504234359 22 292 9.7 17.7 0.00 0.00 0.00 53 1009.9
20260504233358 22 251 8.0 16.1 0.00 0.00 0.00 53 1009.7
20260504232358 22 273 11.3 17.7 0.00 0.00 0.00 53 1009.9
20260504231356 22 268 8.0 24.1 0.00 0.00 0.00 54 1010.0
20260504230356 22 247 8.0 20.9 0.00 0.00 0.00 54 1009.8
20260504225354 23 241 9.7 17.7 0.00 0.00 0.00 53 1010.0
20260504224351 23 281 9.7 16.1 0.00 0.00 0.00 55 1010.0
20260504223351 23 339 12.9 22.5 0.00 0.00 0.00 55 1010.2
20260504222350 22 247 6.4 17.7 0.00 0.00 0.00 55 1010.2
20260504221349 22 244 11.3 16.1 0.00 0.00 0.00 57 1010.1
20260504220348 22 228 11.3 17.7 0.00 0.00 0.00 58 1010.3
20260504215834 22 220 8.0 16.1 0.00 0.00 0.00 59 1010.2
20260504214345 22 294 8.0 20.9 0.00 0.00 0.00 59 1010.2
20260504213329 21 247 9.7 16.1 0.00 0.00 0.00 61 1010.4
20260504211329 21 226 6.4 17.7 0.00 0.00 0.00 62 1010.7
20260504210808 21 251 9.7 16.1 0.00 0.00 0.00 62 1010.7
20260504205329 20 271 9.7 16.1 0.00 0.00 0.00 62 1010.6
20260504204817 20 273 8.0 16.1 0.00 0.00 0.00 64 1010.7
20260504203329 20 250 11.3 14.5 0.00 0.00 0.00 65 1010.9
20260504202329 20 279 9.7 16.1 0.00 0.00 0.00 65 1011.0
20260504201329 19 264 9.7 16.1 0.00 0.00 0.00 67 1011.1
20260504200329 19 268 8.0 14.5 0.00 0.00 0.00 67 1010.8
20260504195807 18 254 9.7 16.1 0.00 0.00 0.00 69 1011.0
20260504194758 18 272 6.4 14.5 0.00 0.00 0.00 69 1011.1
20260504193321 18 288 9.7 16.1 0.00 0.00 0.00 73 1011.1
20260504192320 18 248 8.0 16.1 0.00 0.00 0.00 72 1011.2
20260504191316 17 274 9.7 16.1 0.00 0.00 0.00 72 1011.4
20260504190314 17 223 8.0 16.1 0.00 0.00 0.00 72 1011.4
20260504185310 17 283 9.7 16.1 0.00 0.00 0.00 73 1011.7
20260504184309 17 226 9.7 16.1 0.00 0.00 0.00 75 1011.7
20260504183303 16 280 9.7 16.1 0.00 0.00 0.00 76 1011.8
20260504182304 16 252 6.4 16.1 0.00 0.00 0.00 77 1011.7
20260504181302 16 226 8.0 14.5 0.00 0.00 0.00 77 1011.9
20260504180301 16 288 8.0 14.5 0.00 0.00 0.00 77 1011.6
20260504175300 16 246 11.3 14.5 0.00 0.00 0.00 77 1011.6
20260504174300 16 264 8.0 14.5 0.00 0.00 0.00 77 1011.6
20260504173255 16 240 8.0 12.9 0.00 0.00 0.00 78 1011.7
20260504172253 15 247 6.4 14.5 0.00 0.00 0.00 79 1011.7
20260504171252 15 299 4.8 14.5 0.00 0.00 0.00 78 1011.6
20260504170248 15 246 6.4 14.5 0.00 0.00 0.00 79 1011.6
20260504150228 13 256 4.8 12.9 0.00 0.00 0.00 87 1010.8
20260504141202 12 265 3.2 9.7 0.00 0.00 0.00 87 1010.7
20260504140201 12 256 3.2 9.7 0.00 0.00 0.00 87 1010.5
20260504130201 12 197 0.0 0.0 0.00 0.00 0.00 85 1009.9
20260504120156 12 197 0.0 0.0 0.00 0.00 0.00 83 1009.4
20260504110150 13 197 0.0 0.0 0.00 0.00 0.00 82 1009.3
20260504100130 13 197 0.0 0.0 0.00 0.00 0.00 80 1009.0
20260504090130 14 196 0.0 0.0 0.00 0.00 0.00 77 1009.1
20260504081122 15 196 0.0 0.0 0.00 0.00 0.00 72 1009.1
20260504080119 15 196 0.0 0.0 0.00 0.00 0.00 72 1009.2